Stations météo

réclame
Mon MeteoGroup
Kirkwall, Grande-Bretagne (3017): Température de l'air & dewpoint: 08.10.2019 19:00:00 - 14.10.2019 19:00:00 (BST)Kirkwall, Grande-Bretagne (3017): Température de l'air -20cm & Température de l'air -100cm: 08.10.2019 19:00:00 - 14.10.2019 19:00:00 (BST)Kirkwall, Grande-Bretagne (3017): Vitesse du vent & gusts: 08.10.2019 19:00:00 - 14.10.2019 19:00:00 (BST)Kirkwall, Grande-Bretagne (3017): Direction du vent: 08.10.2019 19:00:00 - 14.10.2019 19:00:00 (BST)Kirkwall, Grande-Bretagne (3017): reduced air pressure: 08.10.2019 19:00:00 - 14.10.2019 19:00:00 (BST)Kirkwall, Grande-Bretagne (3017): visibility: 08.10.2019 19:00:00 - 14.10.2019 19:00:00 (BST)Kirkwall, Grande-Bretagne (3017): Ensoleillement: 08.10.2019 19:00:00 - 14.10.2019 19:00:00 (BST)Kirkwall, Grande-Bretagne (3017): Quantités de précipitations: 08.10.2019 19:00:00 - 14.10.2019 19:00:00 (BST)
Date & Time tt [°C] td [°C] tt -20cm [°C] tt -100cm [°C] ff [km/h] ff [knt] fx [km/h] fx [knt] dd ppp [hPa] vv [km] sd [min] rr [mm]
14.10.2019 19:00:00 9,0 7,6 - - 11 6 - - SSE 1007,8 55 0 0,0
14.10.2019 18:00:00 8,9 7,1 - - 9 5 - - SSE 1007,6 65 0 0,0
14.10.2019 17:00:00 10,1 7,8 - - 11 6 - - S 1007,4 65 0 0,0
14.10.2019 16:00:00 10,8 8,1 - - 15 8 - - S 1007,5 60 0 0,0
14.10.2019 15:00:00 11,5 8,6 - - 21 11 - - S 1007,4 55 0 0,0
14.10.2019 14:00:00 11,5 8,7 - - 16 9 - - S 1007,5 55 0 0,0
14.10.2019 13:00:00 11,7 9,0 - - 15 8 - - SSE 1007,6 65 0 0,0
14.10.2019 12:00:00 11,4 8,1 - - 15 8 - - SE 1007,5 60 18 0,0
14.10.2019 11:00:00 11,1 8,7 - - 11 6 - - SSE 1007,4 65 48 0,0
14.10.2019 10:00:00 8,9 8,1 10,7 11,0 9 5 - - S 1007,3 75 6 0,0
14.10.2019 09:00:00 6,7 6,1 - - 11 6 - - S 1006,8 65 0 0,0
14.10.2019 08:00:00 6,5 6,0 - - 11 6 - - S 1006,3 60 0 0,0
14.10.2019 07:00:00 6,4 5,7 - - 9 5 - - SSW 1006,0 40 0 0,0
14.10.2019 06:00:00 6,3 5,5 - - 9 5 - - SSW 1005,6 35 0 0,2
14.10.2019 05:00:00 6,4 5,3 - - 11 6 - - SSW 1005,3 60 0 0,0
14.10.2019 04:00:00 7,0 5,9 - - 0 0 - - N 1004,8 65 0 0,0
14.10.2019 03:00:00 7,9 6,9 - - 0 0 - - N 1004,6 65 0 0,0
14.10.2019 02:00:00 8,1 7,2 - - 2 1 - - W 1004,4 45 0 0,0
14.10.2019 01:00:00 7,6 6,8 - - 0 0 - - N 1003,9 70 - 0,0
14.10.2019 00:00:00 7,5 6,7 - - 0 0 - - N 1003,5 65 0 0,0
13.10.2019 23:00:00 7,0 6,1 - - 0 0 - - N 1003,3 35 0 0,0
13.10.2019 22:00:00 7,3 6,3 - - 0 0 - - N 1003,0 55 0 0,0
13.10.2019 21:00:00 6,6 5,5 - - 0 0 - - N 1002,6 75 0 0,0
13.10.2019 20:00:00 7,0 5,7 - - 8 4 - - E 1002,3 70 0 0,0
13.10.2019 19:00:00 7,2 5,5 - - 13 7 - - E 1002,3 75 0 0,0
13.10.2019 18:00:00 7,9 6,0 - - 13 7 - - ENE 1002,0 75 18 0,0
13.10.2019 17:00:00 10,2 6,9 - - 11 6 - - ENE 1001,9 75 60 0,0
13.10.2019 16:00:00 11,0 7,3 - - 13 7 - - ENE 1002,1 75 48 0,0
13.10.2019 15:00:00 11,1 7,5 - - 13 7 - - E 1002,3 75 6 0,0
13.10.2019 14:00:00 11,7 7,9 - - 15 8 - - E 1002,7 75 30 0,0
13.10.2019 13:00:00 11,6 8,0 - - 18 10 - - E 1002,9 60 60 0,0
13.10.2019 12:00:00 11,4 7,8 - - 16 9 - - E 1002,8 75 30 0,0
13.10.2019 11:00:00 10,8 8,2 - - 11 6 - - E 1003,0 65 18 0,0
13.10.2019 10:00:00 8,7 7,8 10,7 11,2 0 0 - - N 1002,9 70 0 0,0
13.10.2019 09:00:00 6,8 5,6 - - 9 5 - - E 1002,5 65 0 0,0
13.10.2019 08:00:00 6,7 5,6 - - 9 5 - - E 1002,2 75 0 0,0
13.10.2019 07:00:00 7,2 6,3 - - 8 4 - - ENE 1001,9 75 0 0,0
13.10.2019 06:00:00 6,4 5,4 - - 4 2 - - NNE 1001,8 65 0 0,0
13.10.2019 05:00:00 7,8 7,0 - - 11 6 - - NE 1001,6 60 0 0,0
13.10.2019 04:00:00 7,5 6,9 - - 0 0 - - N 1001,5 75 0 0,0
13.10.2019 03:00:00 8,1 7,5 - - 0 0 - - N 1001,3 75 0 0,2
13.10.2019 02:00:00 7,6 7,1 - - 4 2 - - W 1001,0 13 0 0,0
13.10.2019 01:00:00 7,4 6,8 - - 0 0 - - N 1000,8 40 - 0,0
13.10.2019 00:00:00 7,3 6,8 - - 5 3 - - E 1000,4 50 0 0,0
12.10.2019 23:00:00 7,6 7,0 - - 0 0 - - N 1000,3 35 0 0,0
12.10.2019 22:00:00 8,1 7,4 - - 0 0 - - N 1000,0 19 0 0,6
12.10.2019 21:00:00 7,6 6,7 - - 0 0 - - N 999,6 65 0 0,2
12.10.2019 20:00:00 8,7 7,8 - - 4 2 - - W 999,1 55 0 0,8
12.10.2019 19:00:00 8,5 7,6 - - 11 6 - - SW 998,5 60 0 0,0
12.10.2019 18:00:00 8,7 7,6 - - 9 5 - - WSW 998,1 70 0 0,2
12.10.2019 17:00:00 9,0 8,1 - - 11 6 - - W 997,7 30 0 1,2
12.10.2019 16:00:00 8,6 7,4 - - 16 9 - - WSW 997,6 4,2 0 3,8
12.10.2019 15:00:00 9,8 8,3 - - 9 5 - - W 997,3 75 0 0,8
12.10.2019 14:00:00 10,4 8,4 - - 9 5 - - W 996,8 75 0 0,8
12.10.2019 13:00:00 10,0 8,3 - - 24 13 - - WSW 996,6 6 0 0,0
12.10.2019 12:00:00 9,4 7,6 - - 21 11 - - WSW 996,2 21 0 0,4
12.10.2019 11:00:00 9,7 8,6 - - 15 8 - - W 995,7 20 0 0,8
12.10.2019 10:00:00 9,3 8,1 10,9 11,2 18 10 - - W 995,2 11 0 0,8
12.10.2019 09:00:00 9,1 8,1 - - 9 5 - - WNW 994,7 35 0 0,2
12.10.2019 08:00:00 8,6 7,8 - - 13 7 - - W 994,3 2,2 0 0,6
12.10.2019 07:00:00 8,5 7,8 - - 13 7 - - WSW 993,5 10 0 0,0
12.10.2019 06:00:00 7,9 7,0 - - 0 0 - - N 993,2 18 0 2,6
12.10.2019 05:00:00 6,7 5,6 - - 8 4 - - WSW 992,8 75 0 0,0
12.10.2019 04:00:00 6,0 4,7 - - 2 1 - - W 992,7 75 0 0,0
12.10.2019 03:00:00 6,2 4,8 - - 11 6 - - WSW 992,7 65 0 0,0
12.10.2019 02:00:00 7,4 6,0 - - 9 5 - - WNW 992,2 55 0 0,0
12.10.2019 01:00:00 9,1 7,6 - - 16 9 - - W 991,7 50 - 0,0
12.10.2019 00:00:00 9,5 7,9 - - 15 8 - - NW 990,8 45 0 0,4
11.10.2019 23:00:00 9,6 8,7 - - 11 6 - - NW 990,1 3,7 0 1,0
11.10.2019 22:00:00 9,5 8,7 - - 15 8 - - NW 989,1 3,3 0 0,4
11.10.2019 21:00:00 9,0 8,1 - - 11 6 - - WNW 988,3 50 0 0,2
11.10.2019 20:00:00 8,7 7,8 - - 9 5 - - WNW 987,6 50 0 0,2
11.10.2019 19:00:00 8,1 6,7 - - 9 5 - - W 987,0 45 0 0,0
11.10.2019 18:00:00 10,6 8,7 - - 9 5 - - WNW 986,3 60 6 0,0
11.10.2019 17:00:00 10,8 8,8 - - 8 4 - - WNW 985,8 60 0 0,0
11.10.2019 16:00:00 12,0 8,6 - - 22 12 - - W 985,8 65 6 0,0
11.10.2019 15:00:00 12,4 8,8 - - 24 13 - - WSW 985,6 45 18 0,0
11.10.2019 14:00:00 11,9 9,2 - - 26 14 - - SW 985,7 45 18 0,0
11.10.2019 13:00:00 11,6 9,0 - - 26 14 - - WSW 985,9 27 0 0,2
11.10.2019 12:00:00 11,5 9,0 - - 21 11 - - SW 986,2 50 0 0,0
11.10.2019 11:00:00 11,1 8,9 - - 16 9 - - SW 986,3 45 0 0,0
11.10.2019 10:00:00 10,3 8,4 11,0 11,2 18 10 - - SW 986,3 50 0 0,0
11.10.2019 09:00:00 10,0 8,6 - - 13 7 - - SW 986,2 40 0 0,0
11.10.2019 08:00:00 8,9 7,8 - - 16 9 - - SW 986,3 45 0 0,0
11.10.2019 07:00:00 8,8 7,4 - - 21 11 - - SSW 986,4 40 0 0,0
11.10.2019 06:00:00 9,6 8,3 - - 18 10 - - SW 986,6 35 0 0,0
11.10.2019 05:00:00 9,6 8,4 - - 21 11 - - SW 986,8 50 0 0,0
11.10.2019 04:00:00 9,8 8,8 - - 21 11 - - SW 987,0 30 0 0,0
11.10.2019 03:00:00 9,7 8,7 - - 22 12 - - SW 987,5 29 0 0,6
11.10.2019 02:00:00 9,9 9,1 - - 15 8 - - SSW 988,0 12 0 0,8
11.10.2019 01:00:00 9,9 8,6 - - 15 8 - - S 988,5 13 - 0,2
11.10.2019 00:00:00 9,7 8,6 - - 15 8 - - S 989,2 40 0 0,0
10.10.2019 23:00:00 9,7 8,3 - - 11 6 - - S 990,1 19 0 0,2
10.10.2019 22:00:00 9,6 8,2 - - 13 7 - - SSE 990,9 45 0 0,0
10.10.2019 21:00:00 8,2 6,2 - - 13 7 - - SSE 992,0 40 0 0,0
10.10.2019 20:00:00 7,9 5,4 - - 9 5 - - SSE 992,7 40 0 0,0
10.10.2019 19:00:00 9,1 5,0 - - 11 6 - - SW 993,4 40 0 0,0
10.10.2019 18:00:00 9,5 5,5 - - 9 5 - - WSW 993,8 35 6 0,0
10.10.2019 17:00:00 10,8 5,1 - - 18 10 - - W 994,0 40 6 0,0
10.10.2019 16:00:00 11,0 5,3 - - 21 11 48 26 W 994,4 35 0 0,0
10.10.2019 15:00:00 11,0 4,0 - - 34 18 48 26 W 994,4 35 0 0,0
10.10.2019 14:00:00 10,6 4,4 - - 29 16 57 31 W 994,5 35 12 0,0
10.10.2019 13:00:00 10,4 5,0 - - 34 18 50 27 W 994,2 30 0 0,0
10.10.2019 12:00:00 10,2 4,7 - - 35 19 50 27 W 993,8 30 12 0,0
10.10.2019 11:00:00 10,3 4,6 - - 37 20 54 29 W 993,0 40 30 0,0
10.10.2019 10:00:00 9,9 5,1 11,0 11,2 37 20 54 29 W 992,3 40 0 0,0
10.10.2019 09:00:00 9,4 6,1 - - 39 21 57 31 W 991,6 35 0 0,0
10.10.2019 08:00:00 8,9 7,4 - - 41 22 59 32 W 990,6 35 0 1,0
10.10.2019 07:00:00 9,7 8,0 - - 37 20 57 31 W 989,0 22 0 0,0
10.10.2019 06:00:00 9,9 8,0 - - 37 20 55 30 W 988,2 30 0 0,0
10.10.2019 05:00:00 10,0 7,9 - - 39 21 57 31 W 987,2 40 0 0,0
10.10.2019 04:00:00 10,3 8,5 - - 37 20 55 30 W 986,4 30 0 0,0
10.10.2019 03:00:00 10,1 8,9 - - 37 20 52 28 W 985,8 35 0 0,4
10.10.2019 02:00:00 10,1 8,7 - - 35 19 52 28 W 985,4 7 0 0,0
10.10.2019 01:00:00 10,7 9,1 - - 39 21 55 30 WSW 984,8 22 - 0,0
10.10.2019 00:00:00 10,6 9,2 - - 29 16 48 26 WSW 984,2 29 0 0,0
09.10.2019 23:00:00 11,0 9,7 - - 31 17 50 27 W 983,8 35 0 1,4
09.10.2019 22:00:00 10,5 9,5 - - 37 20 54 29 SSW 983,4 3,3 0 2,4
09.10.2019 21:00:00 10,5 9,1 - - 34 18 55 30 SSW 983,6 7 0 0,4
09.10.2019 20:00:00 10,7 8,7 - - 34 18 54 29 SSW 983,7 29 0 0,0
09.10.2019 19:00:00 11,5 8,3 - - 34 18 50 27 SSW 984,0 40 0 0,0
09.10.2019 18:00:00 11,5 8,4 - - 29 16 52 28 SSW 984,0 40 6 0,0
09.10.2019 17:00:00 12,2 8,4 - - 34 18 46 25 SSW 984,1 55 12 0,0
09.10.2019 16:00:00 12,2 8,4 - - 34 18 54 29 SW 984,2 55 0 0,0
09.10.2019 15:00:00 12,3 9,2 - - 26 14 - - SW 984,2 11 0 0,0
09.10.2019 14:00:00 12,1 9,0 - - 28 15 - - SSW 984,2 45 0 0,0
09.10.2019 13:00:00 11,7 8,6 - - 34 18 - - SSW 984,1 50 0 0,0
09.10.2019 12:00:00 11,1 8,0 - - 31 17 46 25 SSW 984,0 40 0 0,0
09.10.2019 11:00:00 10,9 7,7 - - 31 17 46 25 SSW 984,0 45 0 0,0
09.10.2019 10:00:00 10,6 7,6 11,0 11,4 29 16 48 26 SSW 984,0 40 0 0,0
09.10.2019 09:00:00 10,5 7,8 - - 28 15 46 25 SSW 984,0 40 0 0,0
09.10.2019 08:00:00 10,2 7,8 - - 29 16 48 26 SSW 984,1 40 0 0,0
09.10.2019 07:00:00 10,3 7,9 - - 29 16 - - SSW 984,0 35 0 0,0
09.10.2019 06:00:00 10,1 7,7 - - 28 15 - - SSW 984,0 40 0 0,0
09.10.2019 05:00:00 10,3 8,2 - - 26 14 - - SSW 984,0 28 0 0,0
09.10.2019 04:00:00 10,4 8,5 - - 24 13 - - SSW 984,2 35 0 0,0
09.10.2019 03:00:00 9,9 8,4 - - 24 13 - - SSW 984,2 40 0 0,2
09.10.2019 02:00:00 10,0 8,5 - - 28 15 - - SSW 984,2 26 0 0,4
09.10.2019 01:00:00 10,3 7,8 - - 26 14 55 30 SSW 984,2 45 - 0,0
09.10.2019 00:00:00 9,8 7,7 - - 26 14 - - SSW 984,2 45 0 0,0
08.10.2019 23:00:00 9,7 7,9 - - 21 11 - - SSW 984,3 45 0 0,0
08.10.2019 22:00:00 9,8 7,6 - - 21 11 - - SSW 984,6 35 0 0,0
08.10.2019 21:00:00 10,1 8,5 - - 22 12 - - SSW 984,4 35 0 0,0
08.10.2019 20:00:00 10,6 8,8 - - 24 13 - - SSW 984,2 40 0 0,0
08.10.2019 19:00:00 11,1 9,4 - - 21 11 - - SSW 984,3 40 0 0,2

tt = Température de l'air
td = dewpoint
tt -20cm = Température de l'air -20cm
tt -100cm = Température de l'air -100cm
ff = Vitesse du vent
fx = gusts
dd = Direction du vent
ppp = reduced air pressure
vv = visibility
sd = Ensoleillement
rr = Quantités de précipitations

stations d'obs. à proximité